Theta_e
311 311 311 311 311 311 310 309 309 308 308 306 304 303 302 303 305 306 307 309 311 312 311 320 326 326 325 324 325 324 329 331 329 328 328 325 325 323 323 323 323 321 325 325 326
309 309 309 310 310 311 310 310 309 309 309 308 307 304 302 300 306 310 310 311 312 310 311 326 328 326 325 325 325 327 328 329 327 327 326 325 326 326 323 323 321 322 324 326 325
306 307 308 308 309 309 309 310 310 310 310 309 308 307 303 300 311 308 312 316 317 310 310 322 326 326 327 324 326 326 329 328 327 327 327 326 326 327 323 325 324 322 322 323 322
303 303 305 306 307 307 307 308 309 310 310 309 308 307 305 306 306 311 316 313 318 316 313 317 324 326 326 327 326 329 327 328 327 327 328 327 327 326 325 324 324 323 323 323 321
306 306 306 305 305 305 307 307 307 308 309 309 309 309 309 313 307 311 316 311 318 317 315 314 317 324 327 328 327 327 327 327 327 327 327 326 326 326 326 325 323 320 323 324 322
306 307 306 306 306 305 303 306 305 305 306 309 310 311 310 307 304 306 309 308 309 320 319 315 315 316 317 320 322 326 327 328 328 329 328 328 328 328 328 326 324 321 322 323 323
305 305 306 307 306 306 305 302 304 306 306 307 311 311 311 311 304 306 308 308 309 312 318 318 317 317 315 316 315 318 320 321 324 326 326 326 327 326 325 323 322 321 320 322 322
305 304 305 306 306 308 307 305 300 300 305 307 310 312 312 310 309 306 307 305 307 311 315 316 318 316 316 314 316 317 318 320 321 324 326 322 328 325 323 322 322 322 319 320 321
305 304 304 305 306 306 306 306 302 302 306 308 309 310 311 308 309 308 307 306 306 308 308 314 315 315 313 316 315 315 318 318 320 320 322 321 324 325 324 322 322 321 320 318 319
305 304 304 304 305 305 305 304 303 306 307 308 308 311 309 307 306 307 307 306 310 309 311 312 315 313 311 313 316 315 316 318 320 320 320 322 323 324 324 324 322 322 322 319 318
305 304 304 304 304 304 305 303 304 311 309 310 309 308 307 309 309 311 307 306 312 313 311 314 317 318 318 315 316 315 316 317 318 320 323 322 323 324 324 322 322 322 321 320 320
305 304 304 304 304 305 305 302 305 307 308 308 309 311 311 312 312 311 309 309 311 309 312 314 316 319 318 317 315 316 317 319 320 321 322 321 322 322 322 322 322 323 320 320 321
305 304 304 303 304 304 302 303 304 304 308 309 308 309 309 310 313 312 312 312 309 310 311 312 315 318 321 317 318 317 317 318 320 321 322 322 323 323 323 322 322 321 320 320 321
304 303 304 304 304 303 304 303 304 303 307 305 310 309 310 310 311 312 313 314 312 308 311 312 313 316 318 316 316 319 319 320 320 322 325 322 325 322 321 322 321 321 319 320 320
303 303 304 303 304 304 303 304 304 305 299 302 307 309 312 310 310 310 312 313 315 310 310 311 313 313 316 316 316 318 319 321 321 321 322 323 323 322 320 322 321 319 318 317 319
303 302 303 303 303 303 304 304 305 311 307 305 307 307 309 313 313 313 312 312 314 313 311 310 313 313 314 317 317 316 319 319 319 321 324 323 323 324 322 322 322 321 320 321 319
302 303 303 303 302 303 303 304 307 310 306 306 307 307 305 308 312 314 314 312 314 314 314 312 312 313 314 316 315 315 318 320 320 324 326 322 323 324 322 321 321 321 321 319 320
302 303 303 302 302 302 304 306 308 306 306 307 307 307 309 309 310 314 315 313 312 313 314 314 315 313 314 314 315 315 318 322 325 324 324 322 325 325 321 322 320 320 319 320 321
303 303 303 303 304 303 305 308 306 307 306 307 307 309 309 309 310 312 315 315 312 313 313 314 314 314 314 314 314 315 319 319 320 322 323 323 322 322 321 320 323 322 322 321 322
304 301 302 304 305 305 306 303 306 306 305 306 307 309 308 308 312 312 314 314 316 313 311 313 314 314 314 314 314 313 314 316 315 320 323 324 324 324 322 324 326 325 322 321 322
303 302 303 305 305 305 304 303 304 304 304 306 307 306 307 311 311 312 314 314 314 314 313 311 314 315 315 315 314 312 314 315 318 320 323 324 324 319 320 321 325 323 322 322 324
299 300 305 304 305 303 303 304 305 305 305 305 306 307 307 309 311 309 313 315 312 313 315 314 311 313 315 316 315 314 314 314 317 319 319 322 325 322 318 317 323 323 323 322 323
300 299 303 304 304 303 302 304 304 304 305 305 305 305 306 306 309 309 310 312 310 311 313 314 314 314 316 315 314 313 313 313 314 317 320 322 324 323 320 317 324 323 323 323 323
301 300 298 301 302 304 304 305 305 304 304 303 304 304 306 308 308 309 308 308 309 309 314 309 314 315 315 316 316 317 315 314 316 318 319 321 321 325 325 325 325 324 323 323 325
297 300 301 302 300 301 301 303 304 305 304 303 304 306 306 307 310 311 310 310 308 311 309 308 311 318 315 314 319 319 318 316 317 317 319 320 319 321 326 325 325 323 322 324 325
300 302 303 301 302 301 300 303 305 306 305 305 306 306 306 306 308 310 311 312 310 309 309 307 309 316 321 315 314 316 319 318 319 318 320 319 320 318 323 325 327 325 324 325 326
301 302 301 302 302 298 298 303 303 304 305 305 306 304 305 306 307 307 308 311 310 310 309 309 311 311 320 318 316 316 317 318 320 320 320 320 319 319 325 328 328 325 325 325 326
Wind_Speed
18 18 18 18 18 19 20 20 20 20 20 21 21 21 21 22 21 19 10 16 14 15 20 10 13 11 14 6 5 4 3 7 7 7 8 8 3 5 6 4 4 8 7 7 12
20 19 19 18 18 18 20 21 21 21 21 22 22 21 21 20 20 17 32 27 29 25 12 13 7 7 3 5 5 5 5 10 13 7 7 7 8 16 5 11 5 7 6 5 29
20 20 21 21 21 21 21 21 21 21 22 21 20 21 19 15 6 10 12 1 8 29 24 17 14 8 5 4 7 7 13 24 16 16 5 8 14 12 8 17 13 12 6 5 8
20 20 20 20 22 23 23 22 21 20 22 22 20 19 18 2 9 2 13 12 6 14 21 11 6 8 7 11 12 4 11 20 24 18 6 11 13 15 17 14 18 16 6 9 10
21 21 21 21 21 22 23 23 22 20 21 20 18 16 9 5 9 10 12 11 12 14 18 12 7 7 8 5 5 8 21 19 16 12 13 17 19 21 21 21 19 8 9 14 16
22 23 23 24 23 23 23 24 24 23 23 19 15 12 4 13 14 29 37 31 22 6 12 14 8 8 3 11 12 6 10 19 17 20 19 20 23 19 25 15 16 9 12 12 16
23 24 24 24 24 25 25 25 25 24 21 19 16 14 14 24 12 9 15 22 21 22 6 23 20 8 7 6 6 7 13 18 21 22 19 9 21 21 21 14 15 14 11 12 17
25 26 26 25 25 25 27 29 28 26 22 17 14 14 13 17 23 31 34 36 26 12 23 22 26 14 3 2 7 4 3 10 8 14 17 7 28 24 19 12 15 14 9 10 16
25 26 26 25 25 26 29 32 34 30 23 16 11 8 13 14 12 41 36 17 27 26 20 15 7 6 3 10 8 3 13 13 17 10 6 8 14 22 9 8 12 12 10 11 14
24 25 25 25 25 25 27 35 27 13 8 9 13 2 9 8 11 10 21 30 8 7 4 8 5 6 4 6 14 11 10 16 17 3 11 16 14 22 21 6 12 15 15 12 14
25 25 23 22 23 23 24 16 4 1 3 8 8 7 8 29 18 8 12 18 6 4 12 9 8 19 22 19 13 13 10 16 16 5 7 9 9 17 19 9 15 15 15 13 14
27 26 24 23 22 19 21 1 4 4 11 14 22 23 40 16 9 7 22 9 9 17 9 6 25 17 10 13 15 13 10 17 15 17 4 13 15 17 18 14 16 20 13 13 4
27 24 24 24 22 14 4 10 11 17 6 10 14 12 15 14 12 9 7 7 7 15 20 23 14 15 16 13 16 17 19 20 18 11 7 10 12 17 20 10 10 8 6 5 11
26 24 23 23 11 8 10 2 22 15 4 7 7 8 11 13 11 17 9 8 6 21 18 17 23 13 23 20 19 19 18 19 16 8 9 4 5 6 8 11 7 10 7 10 8
23 23 21 16 13 6 8 20 26 3 5 3 5 2 3 15 4 14 29 10 11 10 11 18 18 25 18 29 19 19 13 13 8 8 6 18 4 6 4 10 11 10 9 10 8
24 24 20 16 9 16 15 23 4 2 8 6 4 12 6 9 20 8 15 12 10 7 10 18 10 18 28 8 18 9 3 4 7 1 9 20 5 11 6 8 6 6 6 2 7
27 23 19 17 5 4 20 7 0 5 6 2 11 19 19 14 13 17 13 22 16 12 15 8 20 6 12 21 13 11 6 3 3 4 8 8 5 15 11 10 12 10 4 8 8
28 24 21 23 19 10 4 1 7 6 10 16 17 20 7 18 10 9 6 17 28 15 12 13 10 27 14 20 12 23 17 6 6 4 4 7 7 11 10 12 10 9 6 8 9
25 14 11 13 5 7 1 4 4 3 7 14 16 9 10 15 10 11 18 11 18 21 10 14 14 3 21 10 19 14 15 13 3 1 2 4 7 9 3 3 3 5 8 9 9
15 9 8 10 6 6 1 4 4 6 13 13 8 7 13 15 11 14 5 8 10 23 1 2 1 8 16 18 19 9 9 9 4 4 4 5 5 6 3 3 5 7 8 7 7
6 4 9 7 6 1 2 5 5 9 10 6 6 10 13 7 8 11 8 9 19 11 8 4 2 5 14 17 21 6 16 2 7 5 6 1 7 8 9 9 12 9 9 12 12
4 3 4 3 1 1 2 3 5 9 9 6 7 11 12 5 5 8 7 10 17 18 8 7 5 12 10 2 18 24 19 20 8 8 2 4 12 4 7 9 9 9 9 8 9
5 2 3 2 1 1 4 5 6 9 6 3 5 9 11 9 5 7 10 17 13 18 13 10 6 4 4 6 4 15 23 16 7 3 7 6 8 1 4 7 10 10 8 10 10
2 4 3 3 2 1 4 4 4 7 10 5 8 7 10 9 6 8 13 14 20 18 14 7 5 15 15 6 5 5 17 18 15 10 11 9 6 3 3 7 7 7 8 12 13
2 2 2 3 3 7 3 4 6 6 2 5 5 3 11 6 8 7 10 14 12 12 11 4 4 6 21 19 6 6 11 20 20 20 15 16 9 7 8 10 15 9 8 11 11
2 2 1 5 6 5 4 3 5 8 4 5 2 7 10 8 6 12 10 5 4 13 10 6 4 10 7 15 24 19 5 19 20 12 10 8 9 8 7 8 7 11 14 14 15
3 3 0 5 4 2 4 3 10 11 6 7 10 7 11 12 7 11 7 7 8 5 5 2 4 10 8 9 9 15 23 7 10 9 14 8 9 7 4 10 12 11 15 17 17
Wind_Direction
333 332 331 328 323 325 329 328 328 327 327 321 317 317 312 309 306 300 259 250 265 272 257 261 192 188 184 177 184 148 123 251 237 192 244 287 4 246 261 233 301 203 169 235 196
332 328 324 322 319 317 317 318 319 322 322 324 322 320 318 325 320 283 267 279 273 257 217 192 168 184 187 192 190 169 176 231 230 211 244 285 309 291 326 294 260 277 259 258 168
333 332 330 327 324 320 315 313 312 313 314 315 317 323 324 332 324 255 284 225 259 242 224 207 176 166 210 168 200 192 222 233 267 246 216 270 286 279 280 289 272 265 237 177 164
341 330 324 324 323 320 317 314 311 307 308 311 317 324 324 307 237 227 153 29 314 207 196 182 178 176 208 208 211 256 231 241 248 268 275 258 273 276 276 264 276 270 215 166 170
338 335 335 327 319 317 317 313 306 303 301 306 309 318 333 247 237 225 224 322 3 169 180 189 179 182 206 202 197 223 248 252 264 273 273 274 266 264 279 277 274 260 204 182 186
337 334 330 327 326 319 313 310 306 297 296 299 304 307 248 249 258 255 261 275 267 190 184 177 198 213 228 240 246 232 256 261 259 262 259 266 273 278 271 270 273 221 219 191 193
332 331 329 324 321 318 314 306 301 300 297 295 296 288 252 242 249 240 245 261 263 233 200 207 221 198 186 310 263 250 271 276 262 261 260 280 277 268 273 262 258 259 230 210 204
331 329 327 324 321 312 311 311 305 296 293 288 292 280 257 273 269 262 243 261 253 232 231 236 220 229 185 294 338 358 286 269 251 237 255 176 269 269 267 260 259 261 245 210 216
330 328 328 323 317 316 312 312 306 291 280 273 275 238 269 279 225 241 237 227 242 238 246 240 173 192 111 223 265 262 257 270 280 217 246 180 278 276 271 222 257 262 242 213 229
328 327 326 325 322 317 317 314 315 295 251 231 234 257 255 240 232 244 234 214 206 196 205 197 186 185 173 162 212 218 238 247 250 206 218 250 257 276 279 282 260 267 261 214 220
328 328 327 324 324 320 323 337 0 79 270 219 215 246 284 18 291 225 182 178 166 215 189 184 198 212 206 209 213 225 238 247 261 231 229 237 250 275 285 289 276 274 256 227 220
328 327 327 326 325 317 313 257 246 333 292 247 250 245 266 281 299 282 153 145 176 201 174 199 227 214 212 214 222 235 253 259 279 267 261 278 274 274 286 278 271 265 250 235 132
327 326 327 326 319 312 300 272 329 319 266 269 225 232 226 204 231 245 189 162 174 193 198 205 226 206 213 218 221 227 232 249 250 292 219 277 280 279 280 289 273 246 222 173 186
327 325 327 330 319 326 281 279 324 322 291 271 218 244 201 187 248 222 219 172 198 203 200 228 222 193 210 228 216 234 222 242 254 274 272 126 286 292 279 289 285 264 211 229 201
328 325 325 327 291 282 292 324 326 167 308 235 202 137 253 195 111 228 201 220 203 160 175 208 204 222 231 220 209 238 228 245 252 254 299 275 271 259 269 285 267 265 230 235 193
327 326 319 320 274 273 312 324 323 224 245 305 87 2 15 234 257 316 170 220 189 209 242 219 206 213 223 210 219 241 237 276 261 209 256 262 164 281 233 227 264 259 281 143 138
327 318 301 287 249 297 316 336 141 228 299 336 350 335 313 319 205 240 207 192 188 191 211 183 229 228 184 219 218 197 118 267 300 203 228 224 189 238 260 244 241 242 197 144 132
328 314 298 280 277 290 328 81 227 259 260 323 346 318 334 12 344 253 233 198 206 193 178 194 214 213 203 206 193 212 192 178 203 186 218 187 234 253 235 253 230 239 140 127 136
332 334 310 336 292 212 159 213 229 299 346 343 338 337 347 353 339 349 224 233 209 196 180 200 231 227 201 198 191 207 206 187 346 198 73 209 286 315 234 269 193 148 139 155 148
334 330 299 347 151 143 110 261 286 324 330 343 324 350 333 338 344 342 300 12 250 218 251 236 197 212 206 200 214 173 153 194 199 220 237 263 251 230 266 214 187 157 163 135 130
338 343 338 113 132 81 205 247 303 298 316 324 327 305 306 332 348 316 316 42 24 352 307 225 155 293 179 199 195 171 229 201 163 182 182 156 258 212 220 190 192 199 168 161 161
8 341 99 349 41 13 269 263 311 295 309 289 240 265 285 287 299 316 297 354 24 8 1 302 213 250 209 220 190 202 206 212 207 212 232 168 257 248 214 197 168 185 168 154 167
342 285 356 146 215 258 274 265 251 289 290 279 300 285 288 306 306 255 301 318 340 359 341 341 262 239 6 272 183 205 205 202 209 93 212 162 257 286 192 187 179 169 157 155 159
2 338 319 33 111 300 307 273 275 277 298 255 284 289 288 311 269 274 286 298 319 338 327 338 262 226 221 206 166 171 197 198 196 211 223 234 262 211 141 153 158 164 168 162 164
29 289 320 311 340 308 272 274 302 323 251 280 308 280 301 299 313 257 285 304 311 315 2 13 269 285 244 232 281 195 180 199 204 209 198 231 208 212 187 183 200 160 138 147 157
25 322 333 284 300 297 294 281 284 319 274 296 247 323 325 299 274 292 324 346 310 310 347 351 288 337 267 224 228 252 256 197 205 204 215 175 216 202 181 89 139 173 162 174 176
300 266 200 292 307 284 244 313 301 301 284 243 295 313 293 281 324 297 194 210 221 257 299 254 355 351 267 226 216 247 238 213 213 195 182 169 214 150 124 171 179 176 184 180 181